Location: Belvedere Heights
(33.9836°N, 117.3109°W)
Time: 07:38:45
(UTC+00:00)

IRS-1C - Pass Details

Date: 21 March 2023
Orbit: 815 x 816 km, 99.0° (Epoch: 01 June)

Event Time Altitude Azimuth Distance (km) Brightness Sun altitude
Rises 12:06:05 0° 9° (N) 3,348 7.7 -22.4°
Reaches altitude 10° 12:08:26 10° 7° (N) 2,413 6.8 -22.0°
Maximum altitude 12:13:44 68° 286° (WNW) 879 4.0 -20.9°
Enters shadow 12:16:28 29° 211° (SSW) 1,456 5.0 -20.4°
